This is the latest recevied weather packets stored in our database for station/object KD7CTY. If no packets are shown the sender has not sent any weather packets the latest 10 day(s).
| Time | Temp. | Humidity | Pressure | Rain* | Wind** | Luminosity | Snow |
|---|---|---|---|---|---|---|---|
| 1777604358 | 18.33° C | 59% | 1015 hPa | 0 mm | - | 15 W/m² | - |
| 1777604057 | 18.33° C | 60% | 1015 hPa | 0 mm | - | 17 W/m² | - |
| 1777603754 | 18.89° C | 61% | 1015.1 hPa | 0 mm | - | 19 W/m² | - |
| 1777603450 | 18.89° C | 61% | 1015 hPa | 0 mm | - | 23 W/m² | - |
| 1777603146 | 18.89° C | 61% | 1014.9 hPa | 0 mm | - | 26 W/m² | - |
| 1777602842 | 19.44° C | 61% | 1015.1 hPa | 0 mm | - | 28 W/m² | - |
| 1777602537 | 19.44° C | 60% | 1015 hPa | 0 mm | - | 30 W/m² | - |
| 1777602233 | 20° C | 59% | 1014.8 hPa | 0 mm | - | 33 W/m² | - |
| 1777601929 | 20° C | 58% | 1014.8 hPa | 0 mm | - | 32 W/m² | - |
| 1777601623 | 20.56° C | 59% | 1015.1 hPa | 0 mm | - | 35 W/m² | - |
| 1777601319 | 20.56° C | 58% | 1014.9 hPa | 0 mm | - | 39 W/m² | - |
| 1777601016 | 20.56° C | 56% | 1015.3 hPa | 0 mm | - | 39 W/m² | - |
| 1777600713 | 21.11° C | 57% | 1015 hPa | 0 mm | - | 41 W/m² | - |
| 1777600409 | 21.11° C | 56% | 1015.1 hPa | 0 mm | - | 98 W/m² | - |
| 1777600105 | 21.67° C | 55% | 1015 hPa | 0 mm | - | 117 W/m² | - |
| 1777599800 | 21.67° C | 55% | 1015 hPa | 0 mm | - | 141 W/m² | - |
| 1777599496 | 22.22° C | 53% | 1015 hPa | 0 mm | - | 158 W/m² | - |
| 1777599193 | 22.22° C | 52% | 1015 hPa | 0 mm | - | 52 W/m² | - |
| 1777598889 | 22.78° C | 51% | 1015 hPa | 0 mm | - | 58 W/m² | - |
| 1777598587 | 22.78° C | 52% | 1015.3 hPa | 0 mm | - | 203 W/m² | - |
| 1777598283 | 22.78° C | 50% | 1015.1 hPa | 0 mm | - | 222 W/m² | - |
| 1777597981 | 22.78° C | 53% | 1015 hPa | 0 mm | - | 242 W/m² | - |
| 1777597680 | 23.33° C | 51% | 1015.1 hPa | 0 mm | - | 261 W/m² | - |
| 1777597376 | 23.33° C | 51% | 1015.4 hPa | 0 mm | - | 268 W/m² | - |
| 1777597071 | 23.89° C | 50% | 1015.1 hPa | 0 mm | - | 291 W/m² | - |
* Rain latest hour (hover to see other rain measurements)
** Current wind speed in m/s (hover to see current wind gust speed)